This is the latest recevied weather packets stored in our database for station/object WD0REW. If no packets are shown the sender has not sent any weather packets the latest 1 day(s).
| Time | Temp. | Humidity | Pressure | Rain* | Wind** | Luminosity | Snow |
|---|---|---|---|---|---|---|---|
| 1778068775 | 7.22° C | 88% | 1017.2 hPa | 0 mm | 0.45 m/s, 8° | 12 W/m² | - |
| 1778068473 | 7.22° C | 88% | 1017.3 hPa | 0 mm | 0.45 m/s, 356° | 10 W/m² | - |
| 1778068171 | 7.22° C | 88% | 1017.3 hPa | 0 mm | 0.89 m/s, 352° | 6 W/m² | - |
| 1778067868 | 7.22° C | 89% | 1017.2 hPa | 0 mm | 0.45 m/s, 356° | 6 W/m² | - |
| 1778067567 | 7.22° C | 89% | 1016.9 hPa | 0 mm | 0.89 m/s, 345° | 5 W/m² | - |
| 1778067264 | 7.22° C | 89% | 1017 hPa | 0 mm | 0.45 m/s, 357° | 2 W/m² | - |
| 1778066960 | 7.22° C | 89% | 1016.7 hPa | 0 mm | 0.89 m/s, 346° | 2 W/m² | - |
| 1778066658 | 7.22° C | 90% | 1016.3 hPa | 0 mm | 0 m/s | 2 W/m² | - |
| 1778066355 | 7.22° C | 90% | 1016.4 hPa | 0 mm | 0.45 m/s, 0° | 1 W/m² | - |
| 1778066054 | 7.22° C | 90% | 1016.6 hPa | 0 mm | 0 m/s | 1 W/m² | - |
| 1778065762 | 7.22° C | 90% | 1016.4 hPa | 0 mm | 1.34 m/s, 345° | 0 W/m² | - |
| 1778065448 | 7.22° C | 90% | 1015.9 hPa | 0 mm | 0.45 m/s, 357° | 0 W/m² | - |
| 1778065144 | 6.67° C | 90% | 1015.9 hPa | 0 mm | 0 m/s | 0 W/m² | - |
| 1778064841 | 6.67° C | 90% | 1015.9 hPa | 0 mm | 0.45 m/s, 353° | 0 W/m² | - |
| 1778064538 | 6.67° C | 90% | 1015.8 hPa | 0 mm | 0.45 m/s, 1° | 0 W/m² | - |
| 1778064236 | 7.22° C | 89% | 1015.8 hPa | 0 mm | 0 m/s | 0 W/m² | - |
| 1778063933 | 7.22° C | 89% | 1015.8 hPa | 0 mm | 0.89 m/s, 344° | 0 W/m² | - |
| 1778063631 | 7.22° C | 89% | 1016 hPa | 0 mm | 0.45 m/s, 1° | 0 W/m² | - |
| 1778063328 | 7.22° C | 88% | 1015.8 hPa | 0 mm | 0.89 m/s, 354° | 0 W/m² | - |
| 1778063026 | 7.22° C | 88% | 1015.7 hPa | 0 mm | 0.45 m/s, 5° | 0 W/m² | - |
| 1778062723 | 7.22° C | 87% | 1015.7 hPa | 0 mm | 0 m/s | 0 W/m² | - |
| 1778062419 | 7.22° C | 87% | 1015.8 hPa | 0 mm | 0 m/s | 0 W/m² | - |
| 1778062117 | 7.22° C | 87% | 1015.4 hPa | 0 mm | 0.45 m/s, 7° | 0 W/m² | - |
| 1778061815 | 7.22° C | 86% | 1015.2 hPa | 0 mm | 0.45 m/s, 0° | 0 W/m² | - |
| 1778061513 | 7.22° C | 86% | 1015.2 hPa | 0 mm | 0.45 m/s, 348° | 0 W/m² | - |
* Rain latest hour (hover to see other rain measurements)
** Current wind speed in m/s (hover to see current wind gust speed)